This demonstration page uses our WeatherBlox Daily Observations layout. Learn more.

Left ArrowRight Arrow

38.20091, -84.87328

Hourly Observations for July 2, 2022

Temp ( °F °C ) Dew Point ( °F °C ) Humidity (%) Winds ( mph kmh ) Pressure ( in mb ) Visibility ( mi km ) Precip ( " mm )
12:53 am 00:53 Clear 79 26.1 70 21.1 74 74 Calm 29.94 1014 10 16 0.00 0.00
1:53 am 01:53 Clear 77 25 69 20.6 77 77 SW 5 7 29.94 1014 10 16 0.00 0.00
2:53 am 02:53 Clear 76 24.4 69 20.6 79 79 Calm 29.93 1014 10 16 0.00 0.00
3:53 am 03:53 Mostly Cloudy 77 25 69 20.6 77 77 Calm 29.93 1014 10 16 0.00 0.00
4:53 am 04:53 Mostly Cloudy 76 24.4 70 21.1 82 82 Calm 29.94 1014 10 16 0.00 0.00
5:53 am 05:53 Mostly Cloudy 76 24.4 69 20.6 79 79 Calm 29.94 1014 10 16 0.00 0.00
6:53 am 06:53 Mostly Cloudy 75 23.9 70 21.1 84 84 W 3 6 29.95 1014 10 16 0.00 0.00
7:53 am 07:53 Sunny 75 23.9 69 20.6 82 82 NNW 6 9 29.98 1015 10 16 0.00 0.00
8:53 am 08:53 Sunny 79 26.1 69 20.6 72 72 NNE 5 7 29.99 1016 10 16 0.00 0.00
9:53 am 09:53 Sunny 82 27.8 69 20.6 65 65 NW 6 9 30.00 1016 10 16 0.00 0.00
10:53 am 10:53 Sunny 85 29.4 69 20.6 59 59 NNW 3 6 29.99 1016 10 16 0.00 0.00
11:53 am 11:53 Mostly Sunny 87 30.6 68 20 53 53 NNW 6 9 29.99 1016 10 16 0.00 0.00
12:53 pm 12:53 Partly Cloudy 88 31.1 70 21.1 55 55 undefined N/A 29.99 1016 10 16 0.00 0.00
1:53 pm 13:53 Mostly Sunny 90 32.2 68 20 48 48 NW 9 15 29.98 1015 10 16 0.00 0.00
2:53 pm 14:53 Mostly Sunny 89 31.7 66 18.9 47 47 VRB 5 7 29.97 1015 10 16 0.00 0.00
3:53 pm 15:53 Mostly Sunny 91 32.8 66 18.9 44 44 NNW 12 19 29.95 1014 10 16 0.00 0.00
4:53 pm 16:53 Sunny 90 32.2 65 18.3 44 44 NNW 8 13 29.95 1014 10 16 0.00 0.00
5:53 pm 17:53 Partly Cloudy 89 31.7 67 19.4 48 48 VRB 7 11 29.96 1015 10 16 0.00 0.00
6:53 pm 18:53 Sunny 87 30.6 67 19.4 51 51 N 6 9 29.96 1015 10 16 0.00 0.00
7:53 pm 19:53 Sunny 86 30 68 20 55 55 Calm 29.96 1014 10 16 0.00 0.00
8:53 pm 20:53 Sunny 83 28.3 70 21.1 65 65 NW 3 6 29.95 1014 10 16 0.00 0.00
9:53 pm 21:53 Partly Cloudy 80 26.7 70 21.1 71 71 Calm 29.97 1015 10 16 0.00 0.00
10:53 pm 22:53 Partly Cloudy 80 26.7 71 21.7 74 74 NNW 3 6 30.00 1016 10 16 0.00 0.00
11:53 pm 23:53 Cloudy 81 27.2 68 20 65 65 NNE 3 6 30.00 1016 10 16 0.00 0.00

Powered by AerisWeather